Location: Musselburgh
(55.9419°N, 3.0539°W)
Time: 01:28:30
(UTC+01:00)

X-37B - Visible Passes

Search period start: 18 June 2021 00:00
Search period end: 28 June 2021 00:00
Orbit: 386 x 389 km, 45.0° (Epoch: 10 June)

Date Brightness Start Highest point End Pass type
(mag) Time Alt. Az. Time Alt. Az. Time Alt. Az.
18 Jun 2.7 03:21:13 10° SSW 03:22:33 12° S 03:23:53 10° SSE visible
19 Jun 2.7 02:24:37 12° S 02:24:37 12° S 02:25:39 10° SSE visible
20 Jun 2.7 03:01:04 10° SSW 03:02:09 12° S 03:03:21 10° SSE visible
24 Jun 2.6 23:46:20 10° SSW 23:47:29 12° S 23:47:29 12° S visible
26 Jun 2.9 00:24:00 10° SSW 00:24:10 10° SSW 00:24:10 10° SSW visible
26 Jun 2.7 23:25:47 10° SSW 23:27:08 12° S 23:28:17 11° SSE visible
